7 * 24
多渠道服务支持
STARLINK-38280(NORAD编号100265,国际编号2025-119N)是SpaceX星链低轨卫星互联网星座的在轨组网卫星,由猎鹰9号火箭于2025年发射入轨,搭载可重复使用助推器B1077完成部署。该星运行于约550公里高度的近地轨道,设计寿命约5年,配备相控阵通信天线与星间激光链路,可实现低时延宽带数据传输,单星下行速率超1Gbps,主要服务于全球偏远地区、海事航空及灾害应急场景的高速互联网覆盖,同时具备自主避碰能力,退役后将主动降轨在大气层中焚毁,以降低空间碎片风险。
美国
(US)
| 数据来源 | 国际轨道数据 |
| 星历时间: | 2026-09-21T04:51:45+0800 8小时前 查看轨道信息 |
| 半长轴: | 6721.398km |
| 偏心率: | 0.0001294 |
| 轨道倾角: | 97.285° |
| 近地点辐角 | 37.712° |
| 升交点赤经 | 307.562° |
| 平近点角 | 322.423° |
| 近地点: | 342.391km |
| 远地点: | 344.131km |
| 周期: | 91.401分钟 |
| 每日圈数: | 15.754819 |